Location: Janesville
(42.6830°N, 89.0190°W)
Time: 16:46:47
(UTC-06:00)

Hubble Space Telescope - Visible Passes

Search period start: 27 February 2017 00:00
Search period end: 09 March 2017 00:00
Orbit: 538 x 542 km, 28.5° (Epoch: 26 February)

Date Brightness Start Highest point End Pass type
(mag) Time Alt. Az. Time Alt. Az. Time Alt. Az.
27 Feb 3.3 19:38:11 10° SSW 19:38:56 11° S 19:38:56 11° S visible
28 Feb 3.2 19:28:00 10° SSW 19:29:14 11° S 19:29:36 11° S visible
01 Mar 3.2 19:17:57 10° SSW 19:19:06 11° S 19:20:16 10° SSE visible
02 Mar 3.3 19:08:07 10° SSW 19:08:59 11° S 19:09:53 10° S visible
